Location: Lourdes
(43.1000°N, 0.0500°W)
Time: 21:55:32
(UTC+00:00)

Cosmos 773 Rocket - Pass Details

Date: 13 April 2021
Orbit: 745 x 777 km, 74.1° (Epoch: 13 May)

Event Time Altitude Azimuth Distance (km) Brightness Sun altitude
Rises 01:30:46 0° 346° (NNW) 3,251 7.9 -33.9°
Reaches altitude 10° 01:33:20 10° 355° (N) 2,325 7.1 -33.7°
Maximum altitude 01:38:12 36° 62° (ENE) 1,205 5.3 -33.3°
Enters shadow 01:38:13 36° 63° (ENE) 1,205 5.3 -33.3°
